AAR101 RJAA-RKSI

Flight info

Callsign AAR101
Flight time 2h 7m
Altitude 38000
Route ENPAR Y16 SAPRA Y685 GUKDO GUKDO2E
Aircraft A388/J-SADE2E3FGHIJ3J4J5M1RWXY/LB1D1

Departure

Time 2026-05-04 11:31
Airport Narita International Airport (RJAA)

Arrival

Time 2026-05-04 13:38
Airport Incheon International Airport (RKSI)
Time Latitude Longitude Altitude Speed Heading
2026-05-04 10:49 35.77472 140.39404 149 ft 0 kts 240°
2026-05-04 11:10 35.77533 140.39465 149 ft 3 kts 177°
2026-05-04 11:12 35.77565 140.39448 149 ft 0 kts 151°
2026-05-04 11:19 35.77564 140.39448 149 ft 1 kts 151°
2026-05-04 11:19 35.77544 140.39462 149 ft 6 kts 151°
2026-05-04 11:20 35.77498 140.39507 149 ft 9 kts 113°
2026-05-04 11:20 35.77491 140.39582 149 ft 9 kts 116°
2026-05-04 11:20 35.77437 140.39648 149 ft 13 kts 147°
2026-05-04 11:20 35.77351 140.39713 149 ft 16 kts 148°
2026-05-04 11:22 35.76802 140.39887 149 ft 15 kts 188°
2026-05-04 11:22 35.76704 140.39829 149 ft 17 kts 217°
2026-05-04 11:23 35.76603 140.39738 149 ft 19 kts 205°
2026-05-04 11:23 35.76475 140.39668 149 ft 21 kts 204°
2026-05-04 11:24 35.75718 140.39165 148 ft 17 kts 234°
2026-05-04 11:25 35.75617 140.39073 148 ft 19 kts 205°
2026-05-04 11:25 35.75491 140.39002 149 ft 21 kts 204°
2026-05-04 11:25 35.75352 140.38926 149 ft 23 kts 204°
2026-05-04 11:26 35.75095 140.38799 150 ft 13 kts 175°
2026-05-04 11:27 35.74432 140.39215 149 ft 0 kts 216°
2026-05-04 11:28 35.74421 140.39204 148 ft 5 kts 227°
2026-05-04 11:28 35.74387 140.39149 148 ft 11 kts 238°
2026-05-04 11:28 35.74380 140.39051 147 ft 12 kts 305°
2026-05-04 11:28 35.74415 140.39014 147 ft 0 kts 329°
2026-05-04 11:29 35.74418 140.39012 147 ft 3 kts 329°
2026-05-04 11:29 35.74655 140.38841 150 ft 79 kts 329°
2026-05-04 11:31 35.81362 140.33980 2258 ft 197 kts 328°
2026-05-04 11:33 35.91870 140.26526 6672 ft 274 kts 324°
2026-05-04 11:33 35.93529 140.25338 6970 ft 276 kts 322°
2026-05-04 11:33 35.95175 140.24118 6982 ft 276 kts 322°
2026-05-04 11:34 35.96856 140.22969 6951 ft 281 kts 334°
2026-05-04 11:34 35.98828 140.22652 6996 ft 295 kts 360°
2026-05-04 11:34 36.00822 140.23404 6997 ft 307 kts 25°
2026-05-04 11:34 36.02505 140.25061 6993 ft 312 kts 43°
2026-05-04 11:35 36.03861 140.27164 6992 ft 316 kts 61°
2026-05-04 11:35 36.04483 140.29762 7203 ft 318 kts 89°
2026-05-04 11:35 36.04441 140.32493 7893 ft 318 kts 95°
2026-05-04 11:35 36.04373 140.35234 8712 ft 322 kts 94°
2026-05-04 11:36 36.04342 140.37999 9417 ft 328 kts 93°
2026-05-04 11:36 36.04338 140.40852 10095 ft 335 kts 95°
2026-05-04 11:36 36.04000 140.43737 10408 ft 346 kts 115°
2026-05-04 11:36 36.02907 140.46394 10615 ft 352 kts 131°
2026-05-04 11:37 36.01558 140.49018 10911 ft 369 kts 130°
2026-05-04 11:37 36.00209 140.51751 11580 ft 373 kts 130°
2026-05-04 11:37 35.98713 140.54354 12226 ft 368 kts 141°
2026-05-04 11:37 35.96975 140.56661 12800 ft 369 kts 145°
2026-05-04 11:38 35.95204 140.58964 13493 ft 371 kts 145°
2026-05-04 11:38 35.93329 140.61016 14005 ft 357 kts 160°
2026-05-04 11:38 35.91132 140.62176 14651 ft 334 kts 178°
2026-05-04 11:38 35.88885 140.62429 15250 ft 317 kts 194°
2026-05-04 11:39 35.86788 140.61886 15875 ft 304 kts 208°
2026-05-04 11:39 35.84951 140.60682 16448 ft 296 kts 221°
2026-05-04 11:40 35.77173 140.48919 19713 ft 302 kts 233°
2026-05-04 11:41 35.75883 140.46854 20157 ft 304 kts 236°
2026-05-04 11:41 35.74869 140.44562 20592 ft 308 kts 246°
2026-05-04 11:41 35.74279 140.42008 21046 ft 315 kts 255°
2026-05-04 11:41 35.74148 140.39268 21436 ft 328 kts 265°
2026-05-04 11:42 35.74345 140.37402 21741 ft 336 kts 272°
2026-05-04 11:42 35.75057 140.34594 22141 ft 348 kts 278°
2026-05-04 11:42 35.75888 140.31784 22538 ft 350 kts 278°
2026-05-04 11:42 35.76978 140.28014 23010 ft 354 kts 278°
2026-05-04 11:43 35.77508 140.26077 23280 ft 352 kts 275°
2026-05-04 11:43 35.78143 140.23170 23631 ft 352 kts 274°
2026-05-04 11:43 35.78775 140.20237 23945 ft 356 kts 274°
2026-05-04 11:43 35.79418 140.17288 24350 ft 358 kts 274°
2026-05-04 11:44 35.80066 140.14316 24706 ft 360 kts 274°
2026-05-04 11:44 35.80719 140.11322 25003 ft 364 kts 274°
2026-05-04 11:44 35.81368 140.08335 25362 ft 366 kts 274°
2026-05-04 11:44 35.82028 140.05300 25737 ft 368 kts 274°
2026-05-04 11:45 35.82692 140.02240 26126 ft 369 kts 274°
2026-05-04 11:45 35.83358 139.99175 26519 ft 371 kts 274°
2026-05-04 11:45 35.84026 139.96076 26828 ft 375 kts 274°
2026-05-04 11:45 35.84699 139.92961 27218 ft 377 kts 274°
2026-05-04 11:46 35.85377 139.89819 27611 ft 380 kts 274°
2026-05-04 11:46 35.86056 139.86664 27985 ft 383 kts 274°
2026-05-04 11:46 35.86742 139.83472 28332 ft 387 kts 274°
2026-05-04 11:46 35.87431 139.80265 28755 ft 389 kts 274°
2026-05-04 11:47 35.88125 139.77030 29203 ft 391 kts 274°
2026-05-04 11:47 35.88822 139.73778 29605 ft 394 kts 274°
2026-05-04 11:47 35.89523 139.70492 29965 ft 398 kts 274°
2026-05-04 11:47 35.90222 139.67220 30420 ft 400 kts 274°
2026-05-04 11:48 35.90932 139.63893 30872 ft 402 kts 274°
2026-05-04 11:48 35.91637 139.60547 31277 ft 403 kts 272°
2026-05-04 11:48 35.92151 139.57150 31614 ft 401 kts 268°
2026-05-04 11:48 35.92552 139.53743 32059 ft 403 kts 269°
2026-05-04 11:49 35.92967 139.50330 32455 ft 406 kts 269°
2026-05-04 11:49 35.93391 139.46873 32843 ft 408 kts 269°
2026-05-04 11:49 35.93819 139.43402 33292 ft 409 kts 269°
2026-05-04 11:49 35.94246 139.39914 33604 ft 413 kts 269°
2026-05-04 11:50 35.94673 139.36392 34003 ft 415 kts 268°
2026-05-04 11:50 35.95102 139.32857 34399 ft 417 kts 269°
2026-05-04 11:50 35.95531 139.29329 34937 ft 415 kts 269°
2026-05-04 11:50 35.95959 139.25804 35468 ft 414 kts 269°
2026-05-04 11:51 35.96382 139.22289 35999 ft 413 kts 269°
2026-05-04 11:51 35.96798 139.18845 36536 ft 410 kts 269°
2026-05-04 11:51 35.97215 139.15366 37031 ft 408 kts 269°
2026-05-04 11:51 35.97627 139.11917 37550 ft 405 kts 269°
2026-05-04 11:52 35.98033 139.08467 37743 ft 406 kts 269°
2026-05-04 11:52 35.98841 139.01680 37774 ft 396 kts 269°
2026-05-04 11:53 35.99631 138.94959 37775 ft 395 kts 269°
2026-05-04 11:53 36.00341 138.88242 37782 ft 388 kts 265°
2026-05-04 11:55 36.00698 138.62226 37789 ft 377 kts 262°
2026-05-04 11:56 36.00759 138.55741 37801 ft 376 kts 262°
2026-05-04 11:56 36.00818 138.49285 37801 ft 375 kts 262°
2026-05-04 11:57 36.00874 138.42842 37798 ft 374 kts 262°
2026-05-04 11:57 36.00927 138.36430 37796 ft 372 kts 262°
2026-05-04 11:58 36.00972 138.30028 37823 ft 373 kts 262°
2026-05-04 11:58 36.01016 138.23618 37849 ft 373 kts 262°
2026-05-04 11:59 36.01058 138.17243 37855 ft 374 kts 262°
2026-05-04 11:59 36.01097 138.10819 37908 ft 373 kts 262°
2026-05-04 12:00 36.01130 138.04411 37921 ft 373 kts 262°
2026-05-04 12:00 36.01161 137.98004 37936 ft 374 kts 262°
2026-05-04 12:01 36.01187 137.91570 37940 ft 374 kts 262°
2026-05-04 12:02 36.01255 137.69002 37985 ft 375 kts 262°
2026-05-04 12:03 36.01269 137.62552 37968 ft 376 kts 262°
2026-05-04 12:03 36.01277 137.56100 37989 ft 375 kts 262°
2026-05-04 12:04 36.01281 137.49668 37996 ft 374 kts 262°
2026-05-04 12:04 36.01283 137.43259 37980 ft 372 kts 262°
2026-05-04 12:05 36.01280 137.36907 37980 ft 371 kts 262°
2026-05-04 12:05 36.01277 137.30531 37990 ft 370 kts 262°
2026-05-04 12:06 36.01267 137.24184 37987 ft 368 kts 262°
2026-05-04 12:06 36.01251 137.17873 37988 ft 367 kts 262°
2026-05-04 12:07 36.01237 137.11567 38004 ft 366 kts 262°
2026-05-04 12:07 36.01221 137.05287 38004 ft 365 kts 262°
2026-05-04 12:08 36.01199 136.99070 38005 ft 364 kts 261°
2026-05-04 12:08 36.01173 136.92829 38005 ft 362 kts 262°
2026-05-04 12:09 36.01146 136.86625 38006 ft 361 kts 262°
2026-05-04 12:09 36.01117 136.80454 37999 ft 358 kts 262°
2026-05-04 12:10 36.01081 136.74252 38066 ft 367 kts 262°
2026-05-04 12:10 36.01038 136.67878 38055 ft 373 kts 262°
2026-05-04 12:11 36.00999 136.61510 38064 ft 372 kts 262°
2026-05-04 12:11 36.00953 136.55108 38068 ft 372 kts 262°
2026-05-04 12:12 36.00903 136.48714 38064 ft 372 kts 262°
2026-05-04 12:12 36.00850 136.42321 38064 ft 371 kts 262°
2026-05-04 12:14 36.00605 136.16917 38057 ft 370 kts 262°
2026-05-04 12:15 36.00535 136.10562 38052 ft 370 kts 262°
2026-05-04 12:15 36.00466 136.04249 38045 ft 369 kts 262°
2026-05-04 12:16 36.00391 135.97902 38055 ft 371 kts 262°
2026-05-04 12:16 36.00308 135.91515 38073 ft 372 kts 262°
2026-05-04 12:17 36.00226 135.85120 38073 ft 372 kts 262°
2026-05-04 12:17 36.00140 135.78722 38074 ft 372 kts 262°
2026-05-04 12:18 36.00048 135.72369 38068 ft 373 kts 262°
2026-05-04 12:18 35.99956 135.65968 38072 ft 372 kts 262°
2026-05-04 12:19 35.99859 135.59568 38068 ft 372 kts 262°
2026-05-04 12:19 35.99759 135.53177 38056 ft 372 kts 262°
2026-05-04 12:20 35.99657 135.46791 38051 ft 371 kts 262°
2026-05-04 12:20 35.99550 135.40417 38041 ft 371 kts 262°
2026-05-04 12:21 35.99441 135.34054 38063 ft 370 kts 262°
2026-05-04 12:21 35.99327 135.27710 38065 ft 370 kts 262°
2026-05-04 12:22 35.99210 135.21391 38068 ft 370 kts 262°
2026-05-04 12:22 35.99091 135.15020 38071 ft 371 kts 262°
2026-05-04 12:23 35.98967 135.08634 38081 ft 372 kts 262°
2026-05-04 12:23 35.98839 135.02228 38081 ft 373 kts 262°
2026-05-04 12:24 35.98710 134.95820 38077 ft 374 kts 262°
2026-05-04 12:24 35.98575 134.89387 38090 ft 375 kts 262°
2026-05-04 12:25 35.98436 134.82949 38092 ft 375 kts 262°
2026-05-04 12:25 35.98295 134.76512 38091 ft 375 kts 262°
2026-05-04 12:26 35.98149 134.70084 38091 ft 375 kts 262°
2026-05-04 12:26 35.98000 134.63696 38091 ft 375 kts 262°
2026-05-04 12:27 35.97847 134.57261 38087 ft 375 kts 262°
2026-05-04 12:27 35.97691 134.50811 38090 ft 375 kts 262°
2026-05-04 12:28 35.97531 134.44376 38093 ft 375 kts 263°
2026-05-04 12:28 35.97369 134.37970 38085 ft 375 kts 263°
2026-05-04 12:29 35.97201 134.31521 38087 ft 376 kts 262°
2026-05-04 12:29 35.97058 134.26122 38101 ft 375 kts 262°
2026-05-04 12:30 35.96886 134.19715 38095 ft 376 kts 262°
2026-05-04 12:30 35.96710 134.13254 38095 ft 377 kts 262°
2026-05-04 12:31 35.96529 134.06780 38105 ft 377 kts 262°
2026-05-04 12:31 35.96345 134.00304 38102 ft 377 kts 262°
2026-05-04 12:32 35.96064 133.90642 38103 ft 377 kts 262°
2026-05-04 12:33 35.95867 133.84174 38105 ft 377 kts 262°
2026-05-04 12:33 35.95670 133.77708 38104 ft 377 kts 262°
2026-05-04 12:34 35.95472 133.71241 38102 ft 377 kts 262°
2026-05-04 12:34 35.95267 133.64782 38100 ft 377 kts 262°
2026-05-04 12:35 35.95059 133.58321 38101 ft 376 kts 262°
2026-05-04 12:35 35.94848 133.51864 38098 ft 376 kts 262°
2026-05-04 12:36 35.94634 133.45401 38093 ft 377 kts 262°
2026-05-04 12:36 35.94416 133.38937 38097 ft 377 kts 262°
2026-05-04 12:37 35.94194 133.32478 38102 ft 377 kts 262°
2026-05-04 12:37 35.93968 133.26056 38099 ft 378 kts 262°
2026-05-04 12:38 35.93737 133.19564 38106 ft 378 kts 262°
2026-05-04 12:38 35.93507 133.13079 38102 ft 378 kts 262°
2026-05-04 12:39 35.93272 133.06605 38101 ft 378 kts 262°
2026-05-04 12:39 35.93032 133.00124 38094 ft 378 kts 262°
2026-05-04 12:40 35.92789 132.93640 38099 ft 378 kts 262°
2026-05-04 12:40 35.92541 132.87153 38096 ft 379 kts 263°
2026-05-04 12:41 35.92293 132.80693 38093 ft 380 kts 263°
2026-05-04 12:41 35.92037 132.74179 38092 ft 380 kts 263°
2026-05-04 12:42 35.91779 132.67656 38091 ft 381 kts 263°
2026-05-04 12:42 35.91515 132.61122 38102 ft 381 kts 263°
2026-05-04 12:43 35.91250 132.54617 38095 ft 382 kts 263°
2026-05-04 12:43 35.90981 132.48068 38095 ft 382 kts 263°
2026-05-04 12:44 35.90705 132.41521 38094 ft 382 kts 263°
2026-05-04 12:44 35.90428 132.34973 38086 ft 382 kts 263°
2026-05-04 12:45 35.90146 132.28413 38096 ft 383 kts 263°
2026-05-04 12:45 35.89862 132.21894 38092 ft 383 kts 263°
2026-05-04 12:46 35.89574 132.15328 38087 ft 383 kts 263°
2026-05-04 12:46 35.89282 132.08757 38082 ft 384 kts 263°
2026-05-04 12:47 35.88984 132.02185 38086 ft 384 kts 263°
2026-05-04 12:47 35.88683 131.95603 38087 ft 384 kts 263°
2026-05-04 12:48 35.88379 131.89017 38090 ft 384 kts 263°
2026-05-04 12:48 35.88071 131.82435 38091 ft 384 kts 263°
2026-05-04 12:49 35.87761 131.75858 38098 ft 384 kts 263°
2026-05-04 12:49 35.87444 131.69290 38067 ft 384 kts 263°
2026-05-04 12:50 35.87125 131.62710 38071 ft 384 kts 263°
2026-05-04 12:50 35.86806 131.56147 38067 ft 383 kts 263°
2026-05-04 12:51 35.86480 131.49586 38065 ft 383 kts 263°
2026-05-04 12:51 35.86152 131.43070 38062 ft 383 kts 262°
2026-05-04 12:52 35.85820 131.36512 38064 ft 383 kts 262°
2026-05-04 12:52 35.85486 131.29951 38064 ft 383 kts 262°
2026-05-04 12:53 35.85148 131.23436 38066 ft 383 kts 262°
2026-05-04 12:53 35.84806 131.16881 38064 ft 383 kts 262°
2026-05-04 12:54 35.84461 131.10317 38064 ft 384 kts 262°
2026-05-04 12:54 35.84110 131.03753 38067 ft 384 kts 262°
2026-05-04 12:55 35.83755 130.97177 38066 ft 384 kts 263°
2026-05-04 12:55 35.83396 130.90599 38068 ft 384 kts 263°
2026-05-04 12:56 35.83035 130.84028 38069 ft 384 kts 263°
2026-05-04 12:56 35.82672 130.77451 38064 ft 385 kts 263°
2026-05-04 12:57 35.82677 130.70831 38067 ft 389 kts 270°
2026-05-04 12:57 35.83428 130.64225 38063 ft 393 kts 273°
2026-05-04 12:58 35.84278 130.57570 38068 ft 392 kts 273°
2026-05-04 12:58 35.85118 130.50923 38067 ft 392 kts 273°
2026-05-04 12:59 35.85955 130.44270 38063 ft 393 kts 273°
2026-05-04 12:59 35.86790 130.37605 38065 ft 393 kts 273°
2026-05-04 13:00 35.87616 130.30993 38078 ft 393 kts 273°
2026-05-04 13:00 35.88444 130.24336 38079 ft 393 kts 273°
2026-05-04 13:01 35.89267 130.17680 38072 ft 393 kts 273°
2026-05-04 13:01 35.90090 130.11001 38069 ft 394 kts 273°
2026-05-04 13:02 35.90908 130.04322 38071 ft 394 kts 273°
2026-05-04 13:02 35.91723 129.97643 38103 ft 393 kts 273°
2026-05-04 13:03 35.92530 129.91031 38102 ft 393 kts 273°
2026-05-04 13:03 35.93335 129.84352 38103 ft 393 kts 273°
2026-05-04 13:04 35.94136 129.77678 38102 ft 393 kts 273°
2026-05-04 13:04 35.94933 129.71001 38113 ft 393 kts 273°
2026-05-04 13:05 35.95730 129.64318 38106 ft 393 kts 273°
2026-05-04 13:05 35.96522 129.57635 38109 ft 393 kts 273°
2026-05-04 13:06 35.97605 129.51018 38103 ft 400 kts 280°
2026-05-04 13:06 35.99730 129.44573 38104 ft 411 kts 289°
2026-05-04 13:07 36.02871 129.38550 38057 ft 422 kts 297°
2026-05-04 13:07 36.06291 129.32658 38066 ft 422 kts 296°
2026-05-04 13:08 36.09693 129.26746 38066 ft 422 kts 296°
2026-05-04 13:08 36.13081 129.20854 38075 ft 422 kts 296°
2026-05-04 13:09 36.16487 129.14922 38075 ft 424 kts 297°
2026-05-04 13:09 36.19911 129.08950 38101 ft 425 kts 297°
2026-05-04 13:10 36.23337 129.02966 38106 ft 425 kts 297°
2026-05-04 13:10 36.26726 128.97048 37822 ft 420 kts 297°
2026-05-04 13:10 36.28405 128.94112 37571 ft 417 kts 297°
2026-05-04 13:11 36.30078 128.91173 37325 ft 418 kts 297°
2026-05-04 13:11 36.31757 128.88221 37076 ft 418 kts 297°
2026-05-04 13:11 36.33435 128.85270 36834 ft 418 kts 297°
2026-05-04 13:11 36.35111 128.82320 36578 ft 418 kts 297°
2026-05-04 13:12 36.36785 128.79373 36336 ft 419 kts 297°
2026-05-04 13:12 36.38466 128.76410 36082 ft 422 kts 297°
2026-05-04 13:12 36.40173 128.73399 35827 ft 427 kts 297°
2026-05-04 13:12 36.41890 128.70372 35583 ft 429 kts 297°
2026-05-04 13:13 36.43611 128.67334 35335 ft 428 kts 297°
2026-05-04 13:13 36.45323 128.64314 35082 ft 428 kts 297°
2026-05-04 13:13 36.47018 128.61315 34839 ft 430 kts 297°
2026-05-04 13:13 36.48735 128.58279 34595 ft 429 kts 297°
2026-05-04 13:14 36.50452 128.55236 34342 ft 429 kts 297°
2026-05-04 13:14 36.52162 128.52207 34090 ft 427 kts 297°
2026-05-04 13:14 36.53866 128.49186 33842 ft 425 kts 297°
2026-05-04 13:14 36.55561 128.46172 33592 ft 423 kts 298°
2026-05-04 13:15 36.57241 128.43186 33343 ft 421 kts 298°
2026-05-04 13:15 36.58914 128.40205 33095 ft 419 kts 298°
2026-05-04 13:15 36.60022 128.38236 32931 ft 419 kts 298°
2026-05-04 13:15 36.61690 128.35264 32676 ft 418 kts 298°
2026-05-04 13:16 36.63354 128.32291 32429 ft 417 kts 298°
2026-05-04 13:16 36.65564 128.28387 32100 ft 415 kts 299°
2026-05-04 13:16 36.66692 128.26413 31922 ft 413 kts 300°
2026-05-04 13:16 36.68338 128.23536 31680 ft 413 kts 300°
2026-05-04 13:17 36.70002 128.20621 31428 ft 411 kts 300°
2026-05-04 13:17 36.71654 128.17721 30999 ft 408 kts 300°
2026-05-04 13:17 36.73289 128.14844 30484 ft 405 kts 301°
2026-05-04 13:17 36.74912 128.11985 29916 ft 402 kts 301°
2026-05-04 13:18 36.76523 128.09146 29346 ft 398 kts 301°
2026-05-04 13:18 36.78119 128.06333 28765 ft 395 kts 302°
2026-05-04 13:18 36.79698 128.03547 28240 ft 391 kts 302°
2026-05-04 13:18 36.81261 128.00785 27627 ft 389 kts 302°
2026-05-04 13:19 36.82814 127.98034 27124 ft 384 kts 303°
2026-05-04 13:19 36.84335 127.95337 26385 ft 386 kts 303°
2026-05-04 13:19 36.85893 127.92573 25820 ft 383 kts 303°
2026-05-04 13:19 36.87402 127.89897 25303 ft 379 kts 303°
2026-05-04 13:20 36.88909 127.87223 24759 ft 375 kts 304°
2026-05-04 13:20 36.90411 127.84554 24179 ft 372 kts 304°
2026-05-04 13:20 36.91893 127.81915 23633 ft 369 kts 304°
2026-05-04 13:20 36.93364 127.79295 23037 ft 367 kts 305°
2026-05-04 13:21 36.94833 127.76684 22426 ft 365 kts 305°
2026-05-04 13:21 36.96294 127.74086 21846 ft 363 kts 305°
2026-05-04 13:21 36.97743 127.71509 21258 ft 361 kts 306°
2026-05-04 13:21 36.99183 127.68946 20709 ft 359 kts 306°
2026-05-04 13:22 37.00611 127.66400 20156 ft 357 kts 306°
2026-05-04 13:22 37.01946 127.63847 19548 ft 357 kts 297°
2026-05-04 13:22 37.02655 127.60861 19007 ft 359 kts 282°
2026-05-04 13:22 37.02989 127.57760 18399 ft 359 kts 281°
2026-05-04 13:23 37.03317 127.54673 17824 ft 357 kts 281°
2026-05-04 13:23 37.03637 127.51594 17272 ft 355 kts 281°
2026-05-04 13:23 37.03948 127.48547 16754 ft 352 kts 282°
2026-05-04 13:23 37.04290 127.45531 16182 ft 349 kts 281°
2026-05-04 13:24 37.04591 127.42524 15637 ft 347 kts 281°
2026-05-04 13:24 37.04893 127.39524 15108 ft 346 kts 281°
2026-05-04 13:24 37.05193 127.36557 14599 ft 343 kts 281°
2026-05-04 13:25 37.05777 127.30704 13550 ft 338 kts 281°
2026-05-04 13:25 37.06067 127.27792 12982 ft 337 kts 281°
2026-05-04 13:25 37.06356 127.24897 12470 ft 334 kts 281°
2026-05-04 13:25 37.06645 127.22026 12096 ft 330 kts 282°
2026-05-04 13:26 37.07318 127.19326 11825 ft 323 kts 301°
2026-05-04 13:26 37.08696 127.17118 10924 ft 324 kts 321°
2026-05-04 13:26 37.10419 127.15362 10417 ft 312 kts 319°
2026-05-04 13:26 37.11853 127.13436 10205 ft 294 kts 308°
2026-05-04 13:27 37.12905 127.11328 9997 ft 278 kts 299°
2026-05-04 13:27 37.13686 127.09133 9832 ft 276 kts 293°
2026-05-04 13:27 37.14333 127.06856 9709 ft 278 kts 290°
2026-05-04 13:27 37.14919 127.04540 9579 ft 279 kts 289°
2026-05-04 13:28 37.15477 127.02217 9459 ft 278 kts 289°
2026-05-04 13:28 37.16033 126.99888 9255 ft 279 kts 289°
2026-05-04 13:28 37.16593 126.97577 8971 ft 275 kts 288°
2026-05-04 13:28 37.17139 126.95326 8655 ft 269 kts 288°
2026-05-04 13:29 37.17668 126.93140 8361 ft 256 kts 288°
2026-05-04 13:29 37.18174 126.91049 8005 ft 248 kts 288°
2026-05-04 13:29 37.18687 126.88939 7205 ft 258 kts 288°
2026-05-04 13:29 37.19211 126.86783 6707 ft 257 kts 288°
2026-05-04 13:30 37.19733 126.84621 6603 ft 262 kts 288°
2026-05-04 13:30 37.20270 126.82403 6481 ft 266 kts 288°
2026-05-04 13:30 37.20809 126.80176 6273 ft 268 kts 288°
2026-05-04 13:30 37.21348 126.77951 5992 ft 265 kts 288°
2026-05-04 13:31 37.21881 126.75742 5613 ft 264 kts 287°
2026-05-04 13:31 37.22414 126.73534 5241 ft 263 kts 287°
2026-05-04 13:31 37.22940 126.71355 5034 ft 259 kts 287°
2026-05-04 13:31 37.23457 126.69206 5006 ft 256 kts 287°
2026-05-04 13:32 37.23989 126.67104 5009 ft 256 kts 292°
2026-05-04 13:32 37.24919 126.65233 4996 ft 255 kts 311°
2026-05-04 13:32 37.26241 126.63718 4913 ft 259 kts 320°
2026-05-04 13:32 37.27695 126.62400 4513 ft 253 kts 324°
2026-05-04 13:33 37.29102 126.61163 4181 ft 240 kts 322°
2026-05-04 13:33 37.30440 126.59977 3864 ft 230 kts 323°
2026-05-04 13:33 37.31720 126.58838 3549 ft 221 kts 322°
2026-05-04 13:33 37.32941 126.57756 3305 ft 206 kts 322°
2026-05-04 13:34 37.34030 126.56791 3068 ft 178 kts 321°
2026-05-04 13:34 37.34963 126.55962 2842 ft 154 kts 321°
2026-05-04 13:34 37.35807 126.55210 2640 ft 146 kts 321°
2026-05-04 13:34 37.36626 126.54480 2455 ft 144 kts 321°
2026-05-04 13:35 37.37454 126.53757 2099 ft 146 kts 323°
2026-05-04 13:35 37.39103 126.52359 1653 ft 144 kts 322°
2026-05-04 13:35 37.39900 126.51605 1530 ft 143 kts 319°
2026-05-04 13:36 37.40694 126.50841 1365 ft 144 kts 322°
2026-05-04 13:36 37.41541 126.50162 1159 ft 144 kts 323°
2026-05-04 13:36 37.42346 126.49418 961 ft 143 kts 322°
2026-05-04 13:36 37.43150 126.48686 747 ft 143 kts 321°
2026-05-04 13:37 37.43951 126.47966 473 ft 139 kts 323°
2026-05-04 13:37 37.44748 126.47263 311 ft 141 kts 322°
2026-05-04 13:37 37.45544 126.46550 101 ft 141 kts 323°
2026-05-04 13:37 37.46053 126.46101 38 ft 130 kts 322°
2026-05-04 13:38 37.46837 126.45399 38 ft 78 kts 324°
2026-05-04 13:38 37.47210 126.45060 39 ft 56 kts 327°
2026-05-04 13:38 37.47414 126.44827 37 ft 33 kts 302°
2026-05-04 13:38 37.47470 126.44688 37 ft 1 kts 293°
2026-05-04 13:39 37.47479 126.44662 37 ft 0 kts 293°
2026-05-04 13:39 37.47479 126.44661 37 ft 1 kts 293°
2026-05-04 13:39 37.47503 126.44595 37 ft 16 kts 298°
2026-05-04 13:39 37.47575 126.44477 37 ft 17 kts 317°
2026-05-04 13:40 37.47676 126.44390 38 ft 18 kts 326°
2026-05-04 13:40 37.47764 126.44303 38 ft 12 kts 301°
2026-05-04 13:40 37.47755 126.44204 38 ft 13 kts 236°
2026-05-04 13:40 37.47700 126.44104 39 ft 15 kts 235°
2026-05-04 13:41 37.47636 126.43990 39 ft 16 kts 233°
2026-05-04 13:41 37.47619 126.43960 38 ft 7 kts 233°
2026-05-04 13:41 37.47531 126.43946 37 ft 16 kts 156°
2026-05-04 13:42 37.47322 126.44128 37 ft 20 kts 144°
2026-05-04 13:42 37.47205 126.44232 37 ft 22 kts 145°
2026-05-04 13:42 37.47080 126.44344 37 ft 23 kts 145°
2026-05-04 13:42 37.46950 126.44458 37 ft 23 kts 145°
2026-05-04 13:43 37.46817 126.44576 37 ft 24 kts 145°
2026-05-04 13:43 37.46683 126.44696 37 ft 24 kts 144°
2026-05-04 13:43 37.46547 126.44819 37 ft 24 kts 144°
2026-05-04 13:43 37.46409 126.44943 37 ft 24 kts 144°
2026-05-04 13:44 37.46271 126.45066 37 ft 18 kts 145°
2026-05-04 13:44 37.46262 126.45074 36 ft 0 kts 145°
2026-05-04 13:45 37.46221 126.45110 37 ft 22 kts 144°
2026-05-04 13:45 37.46055 126.45256 37 ft 28 kts 143°
2026-05-04 13:45 37.45896 126.45401 37 ft 28 kts 146°
2026-05-04 13:45 37.45786 126.45481 36 ft 11 kts 180°
2026-05-04 13:46 37.45723 126.45420 37 ft 13 kts 231°
2026-05-04 13:46 37.45659 126.45317 37 ft 16 kts 233°
2026-05-04 13:46 37.45607 126.45245 37 ft 5 kts 176°
2026-05-04 13:46 37.45555 126.45263 37 ft 10 kts 161°
2026-05-04 13:47 37.45484 126.45267 37 ft 11 kts 205°
2026-05-04 13:47 37.45455 126.45240 37 ft 4 kts 240°
2026-05-04 13:47 37.45439 126.45213 37 ft 3 kts 229°
2026-05-04 13:47 37.45425 126.45192 37 ft 0 kts 228°